Temp
-8 -8 -8 -8 -8 -7 -7 -7 -7 -7 -7 -7 -7 -7 -7 -7 -7 -7 -7 -7 -6 -6 -7 -7 -7 -7 -6 -6 -7 -7 -7 -7 -7 -7 -7 -7 -7 -7 -7 -7 -7 -7 -7 -7 -7 -7 -7 -7 -7 -7 -7 -7 -7 -7 -7 -7 -7 -7 -7 -7 -7 -7 -7
-8 -8 -8 -8 -8 -8 -7 -7 -7 -7 -7 -7 -7 -7 -7 -7 -7 -7 -7 -7 -6 -6 -6 -6 -7 -7 -6 -6 -7 -7 -7 -7 -7 -7 -7 -7 -7 -7 -7 -7 -7 -7 -7 -7 -7 -7 -7 -7 -7 -7 -7 -7 -7 -7 -7 -7 -7 -7 -7 -7 -7 -7 -7
-8 -8 -8 -8 -8 -8 -8 -7 -7 -7 -7 -7 -7 -7 -7 -7 -7 -7 -7 -6 -6 -6 -6 -6 -6 -6 -6 -6 -7 -7 -7 -7 -7 -7 -7 -7 -7 -7 -7 -7 -7 -7 -7 -7 -7 -7 -7 -7 -7 -7 -7 -7 -7 -7 -7 -7 -7 -7 -7 -7 -7 -7 -7
-8 -8 -8 -8 -8 -8 -8 -8 -8 -7 -7 -7 -7 -7 -7 -7 -7 -7 -7 -7 -7 -7 -7 -6 -6 -6 -6 -6 -6 -6 -7 -7 -7 -7 -7 -7 -7 -7 -7 -7 -7 -7 -7 -7 -7 -7 -7 -7 -7 -7 -7 -7 -7 -7 -7 -7 -7 -7 -6 -6 -6 -6 -6
-8 -8 -8 -8 -8 -8 -8 -8 -8 -8 -8 -7 -7 -7 -8 -8 -7 -7 -7 -7 -7 -7 -7 -7 -6 -6 -6 -6 -6 -6 -6 -6 -6 -6 -7 -7 -7 -7 -7 -7 -7 -7 -7 -7 -7 -7 -7 -7 -7 -7 -7 -7 -7 -7 -7 -7 -6 -6 -6 -6 -6 -6 -6
-8 -8 -8 -8 -8 -8 -8 -8 -8 -8 -8 -8 -7 -7 -7 -8 -7 -7 -7 -7 -7 -7 -7 -7 -7 -7 -7 -6 -6 -6 -6 -6 -6 -6 -6 -6 -6 -7 -7 -7 -7 -7 -7 -7 -7 -7 -7 -7 -7 -7 -7 -7 -7 -6 -6 -6 -6 -6 -6 -6 -6 -6 -6
-8 -8 -8 -8 -8 -8 -8 -8 -8 -8 -8 -8 -7 -7 -7 -7 -7 -7 -7 -7 -7 -7 -7 -7 -7 -7 -7 -7 -6 -6 -6 -6 -6 -6 -6 -6 -6 -6 -6 -6 -7 -7 -7 -7 -7 -7 -7 -6 -7 -7 -7 -6 -6 -6 -6 -6 -6 -6 -6 -6 -6 -6 -6
-8 -8 -8 -8 -8 -8 -8 -8 -8 -8 -8 -8 -7 -7 -7 -8 -7 -7 -7 -7 -7 -7 -7 -7 -7 -7 -7 -7 -7 -6 -6 -6 -6 -6 -6 -6 -6 -6 -6 -6 -6 -6 -6 -7 -7 -6 -6 -6 -6 -7 -6 -6 -6 -6 -6 -6 -6 -6 -6 -6 -6 -6 -6
-8 -8 -8 -8 -8 -8 -8 -8 -8 -8 -8 -7 -7 -7 -7 -7 -7 -7 -7 -7 -7 -7 -7 -7 -7 -7 -7 -7 -7 -6 -6 -6 -6 -6 -6 -6 -6 -6 -6 -6 -6 -6 -6 -6 -6 -6 -6 -6 -6 -6 -6 -6 -6 -6 -6 -6 -6 -6 -6 -6 -6 -6 -6
-8 -8 -8 -9 -9 -9 -8 -8 -8 -8 -8 -7 -7 -7 -7 -7 -7 -7 -7 -7 -7 -7 -7 -7 -7 -7 -6 -6 -6 -6 -6 -6 -6 -6 -6 -6 -6 -6 -6 -6 -6 -6 -6 -6 -6 -6 -6 -6 -6 -6 -6 -6 -6 -6 -6 -6 -6 -6 -6 -6 -6 -6 -7
-8 -8 -8 -9 -9 -9 -9 -8 -8 -8 -8 -8 -7 -7 -7 -7 -7 -7 -7 -7 -7 -7 -7 -7 -7 -7 -6 -6 -6 -6 -6 -6 -6 -6 -6 -6 -6 -6 -6 -6 -6 -6 -6 -6 -6 -6 -6 -6 -6 -6 -6 -6 -6 -6 -6 -6 -6 -6 -6 -6 -6 -6 -6
-9 -8 -8 -9 -9 -9 -9 -9 -9 -8 -8 -8 -7 -7 -7 -7 -7 -7 -7 -7 -7 -7 -7 -7 -7 -7 -7 -6 -6 -6 -6 -6 -6 -6 -6 -6 -6 -6 -6 -6 -6 -6 -7 -6 -6 -6 -6 -6 -6 -6 -6 -6 -6 -6 -6 -6 -6 -6 -6 -6 -6 -6 -6
-9 -9 -9 -9 -9 -9 -9 -9 -9 -9 -9 -8 -8 -7 -7 -7 -7 -7 -7 -7 -7 -7 -7 -7 -7 -7 -7 -7 -6 -6 -6 -6 -6 -6 -6 -6 -6 -6 -6 -6 -6 -6 -6 -6 -6 -6 -6 -6 -6 -6 -6 -6 -6 -6 -6 -6 -6 -6 -6 -6 -6 -6 -6
-9 -9 -9 -9 -9 -9 -9 -9 -9 -9 -9 -9 -8 -8 -7 -7 -7 -7 -7 -7 -7 -6 -6 -7 -7 -7 -7 -7 -6 -6 -6 -6 -6 -6 -6 -6 -6 -6 -6 -6 -6 -6 -6 -6 -6 -6 -6 -6 -6 -6 -6 -5 -6 -6 -6 -6 -6 -6 -6 -6 -6 -6 -6
-9 -9 -9 -9 -9 -9 -9 -9 -9 -9 -9 -9 -9 -8 -8 -8 -7 -7 -7 -7 -7 -7 -6 -6 -6 -7 -7 -7 -7 -7 -6 -6 -6 -6 -6 -6 -6 -6 -6 -6 -6 -6 -6 -6 -6 -6 -6 -6 -6 -6 -5 -5 -5 -6 -6 -6 -6 -6 -6 -6 -6 -6 -6
-9 -9 -9 -9 -9 -9 -9 -9 -9 -9 -9 -9 -9 -9 -8 -8 -8 -7 -7 -7 -7 -7 -7 -6 -6 -7 -7 -7 -7 -7 -7 -7 -6 -6 -6 -6 -6 -6 -6 -6 -6 -6 -6 -6 -6 -6 -6 -6 -6 -6 -5 -5 -5 -6 -6 -6 -6 -6 -6 -6 -6 -6 -6
-9 -9 -9 -9 -9 -9 -9 -9 -9 -9 -9 -9 -9 -9 -8 -8 -8 -8 -7 -7 -7 -7 -7 -6 -6 -7 -7 -7 -7 -7 -7 -7 -7 -7 -6 -6 -6 -6 -6 -6 -6 -6 -6 -6 -6 -6 -6 -6 -6 -5 -5 -5 -5 -6 -6 -6 -6 -6 -6 -6 -6 -6 -6
-9 -9 -9 -9 -9 -9 -9 -9 -9 -9 -9 -9 -9 -9 -9 -8 -8 -8 -8 -7 -7 -7 -7 -7 -6 -7 -7 -7 -7 -7 -7 -7 -7 -7 -7 -7 -6 -6 -6 -6 -6 -5 -6 -6 -6 -6 -6 -6 -6 -6 -5 -5 -6 -6 -6 -6 -6 -6 -6 -6 -6 -6 -6
-9 -9 -9 -9 -9 -9 -9 -9 -9 -9 -9 -9 -9 -9 -9 -8 -8 -8 -8 -7 -7 -7 -7 -7 -7 -7 -7 -7 -7 -7 -7 -7 -7 -7 -7 -7 -7 -6 -6 -6 -6 -6 -6 -6 -6 -6 -6 -6 -6 -6 -6 -6 -6 -6 -6 -6 -6 -6 -6 -6 -6 -6 -6
-9 -9 -9 -9 -9 -9 -9 -9 -9 -9 -9 -9 -9 -9 -8 -8 -8 -8 -8 -8 -7 -7 -7 -7 -7 -7 -7 -7 -7 -7 -7 -7 -7 -7 -7 -7 -7 -7 -6 -6 -6 -6 -6 -6 -6 -5 -6 -6 -6 -6 -6 -6 -6 -6 -6 -6 -6 -6 -6 -6 -6 -6 -6
-9 -9 -9 -9 -9 -9 -9 -9 -9 -9 -9 -9 -9 -9 -8 -8 -8 -8 -8 -8 -8 -7 -7 -7 -7 -7 -7 -7 -7 -7 -7 -7 -7 -7 -7 -7 -7 -7 -6 -6 -6 -6 -6 -6 -6 -6 -6 -6 -6 -6 -6 -6 -6 -6 -6 -6 -6 -6 -6 -6 -6 -6 -6
-9 -9 -9 -9 -9 -9 -9 -9 -9 -9 -9 -9 -9 -9 -9 -8 -8 -8 -8 -8 -8 -7 -7 -7 -7 -7 -7 -7 -7 -7 -7 -7 -6 -6 -6 -7 -7 -6 -6 -6 -6 -6 -6 -6 -6 -6 -6 -6 -6 -6 -6 -6 -6 -6 -6 -6 -6 -6 -6 -6 -6 -6 -6
-9 -9 -9 -9 -9 -9 -9 -9 -9 -9 -9 -9 -9 -9 -9 -8 -8 -8 -8 -8 -8 -8 -7 -7 -7 -7 -7 -7 -7 -7 -6 -6 -6 -6 -6 -6 -6 -6 -6 -6 -7 -7 -7 -6 -6 -6 -6 -6 -6 -6 -6 -6 -6 -6 -6 -6 -6 -6 -6 -6 -6 -6 -6
-10 -9 -9 -9 -9 -9 -9 -9 -9 -9 -9 -9 -9 -9 -9 -9 -8 -8 -8 -8 -8 -8 -8 -7 -7 -7 -7 -7 -7 -7 -6 -6 -6 -6 -6 -6 -6 -6 -6 -6 -7 -7 -7 -6 -6 -6 -6 -6 -6 -6 -6 -6 -6 -6 -6 -6 -6 -6 -6 -6 -6 -6 -6
-10 -10 -9 -9 -9 -9 -9 -9 -9 -9 -9 -9 -9 -9 -9 -9 -9 -8 -8 -8 -8 -8 -8 -8 -7 -7 -7 -7 -7 -7 -7 -6 -7 -7 -7 -6 -6 -6 -6 -6 -6 -6 -6 -6 -6 -6 -6 -6 -6 -6 -6 -6 -6 -6 -6 -6 -6 -6 -6 -6 -6 -6 -6
-10 -10 -10 -10 -10 -10 -10 -9 -9 -9 -9 -9 -9 -9 -9 -9 -9 -8 -8 -8 -8 -8 -8 -8 -8 -7 -7 -7 -7 -7 -7 -7 -7 -7 -7 -6 -6 -6 -6 -6 -6 -6 -6 -6 -6 -6 -7 -7 -6 -6 -6 -6 -6 -6 -6 -6 -6 -6 -6 -6 -6 -6 -6
-10 -10 -10 -10 -10 -10 -10 -9 -9 -9 -9 -9 -9 -9 -9 -9 -9 -8 -8 -8 -8 -8 -8 -8 -8 -8 -8 -7 -7 -7 -7 -7 -6 -6 -6 -6 -6 -6 -6 -6 -6 -6 -6 -6 -6 -6 -7 -7 -7 -7 -7 -6 -6 -6 -6 -6 -6 -6 -6 -6 -6 -6 -6
-10 -10 -10 -10 -10 -10 -10 -9 -9 -9 -9 -9 -9 -9 -9 -9 -8 -8 -8 -8 -8 -8 -8 -8 -8 -8 -8 -8 -7 -7 -7 -7 -7 -6 -6 -6 -6 -6 -6 -6 -6 -6 -6 -6 -6 -6 -6 -7 -7 -7 -7 -7 -7 -6 -6 -6 -6 -6 -6 -6 -6 -6 -6
-10 -10 -10 -10 -10 -10 -10 -9 -9 -9 -9 -9 -9 -9 -9 -8 -8 -8 -8 -8 -8 -8 -8 -8 -8 -8 -8 -8 -8 -7 -7 -7 -7 -7 -6 -6 -6 -6 -6 -6 -6 -5 -5 -6 -6 -6 -6 -7 -7 -7 -7 -7 -7 -7 -7 -7 -7 -6 -6 -6 -6 -6 -6
-10 -10 -10 -10 -10 -10 -10 -10 -9 -9 -9 -9 -9 -9 -9 -8 -8 -8 -8 -8 -8 -8 -8 -8 -9 -8 -8 -8 -8 -8 -7 -7 -7 -7 -7 -6 -6 -6 -6 -6 -6 -5 -5 -6 -6 -6 -6 -7 -7 -7 -7 -7 -7 -7 -7 -7 -7 -7 -7 -7 -7 -7 -7
-10 -10 -10 -10 -10 -10 -10 -10 -9 -9 -9 -9 -9 -9 -9 -9 -8 -8 -8 -8 -8 -8 -8 -8 -8 -8 -8 -8 -8 -8 -7 -7 -7 -7 -7 -7 -6 -6 -6 -6 -6 -6 -6 -6 -5 -6 -6 -7 -7 -7 -7 -7 -7 -7 -7 -7 -7 -7 -7 -7 -7 -7 -7
-10 -10 -10 -10 -10 -10 -10 -10 -10 -10 -9 -9 -9 -9 -9 -9 -9 -8 -8 -8 -8 -8 -8 -8 -8 -8 -8 -8 -8 -8 -8 -7 -7 -7 -7 -7 -6 -6 -6 -6 -6 -6 -6 -6 -6 -6 -6 -7 -7 -7 -7 -7 -7 -7 -7 -7 -7 -7 -7 -7 -7 -7 -7
-11 -10 -10 -10 -10 -10 -10 -10 -10 -10 -10 -9 -9 -9 -9 -9 -9 -9 -8 -8 -8 -8 -8 -8 -8 -8 -8 -8 -8 -8 -8 -8 -7 -7 -7 -6 -6 -7 -7 -7 -7 -7 -6 -6 -6 -6 -6 -7 -7 -7 -7 -7 -7 -7 -7 -7 -7 -7 -7 -7 -7 -7 -7
-11 -11 -10 -10 -10 -10 -10 -10 -10 -10 -10 -10 -9 -9 -9 -9 -9 -9 -9 -9 -8 -8 -8 -8 -9 -8 -8 -8 -8 -8 -8 -8 -7 -7 -7 -6 -6 -6 -7 -7 -7 -7 -7 -7 -7 -7 -7 -7 -7 -7 -7 -7 -7 -7 -7 -7 -7 -7 -7 -7 -7 -7 -7
-11 -11 -11 -10 -10 -10 -10 -10 -10 -10 -10 -10 -10 -9 -9 -9 -9 -9 -9 -9 -9 -9 -9 -9 -9 -8 -8 -8 -8 -8 -8 -7 -7 -7 -7 -7 -6 -6 -6 -6 -7 -7 -7 -7 -7 -7 -7 -7 -7 -7 -7 -7 -7 -7 -7 -7 -7 -7 -7 -7 -7 -7 -7
-11 -11 -11 -11 -11 -10 -10 -10 -10 -10 -10 -10 -10 -10 -9 -9 -9 -9 -9 -9 -9 -9 -9 -9 -9 -9 -8 -8 -8 -8 -8 -7 -7 -7 -7 -7 -7 -7 -7 -7 -7 -7 -7 -7 -7 -7 -7 -7 -7 -7 -7 -7 -7 -7 -7 -7 -7 -7 -7 -7 -7 -7 -7
-11 -11 -11 -11 -11 -11 -10 -10 -10 -10 -10 -10 -10 -10 -10 -10 -9 -9 -9 -9 -9 -9 -9 -9 -9 -9 -9 -8 -8 -8 -8 -7 -7 -7 -7 -7 -7 -7 -7 -7 -7 -7 -6 -6 -7 -7 -7 -7 -7 -7 -7 -7 -7 -7 -7 -7 -7 -7 -7 -7 -7 -7 -8
-11 -11 -11 -11 -11 -11 -11 -10 -10 -10 -10 -10 -10 -10 -10 -10 -10 -10 -9 -9 -9 -9 -9 -9 -9 -9 -9 -9 -8 -8 -8 -7 -7 -7 -7 -7 -7 -7 -7 -7 -7 -7 -6 -6 -7 -7 -7 -7 -7 -7 -7 -7 -6 -7 -7 -7 -7 -7 -7 -7 -8 -8 -8
Height
5889 5890 5890 5891 5891 5892 5893 5894 5895 5895 5895 5896 5898 5899 5899 5900 5901 5902 5902 5902 5902 5903 5903 5903 5904 5905 5907 5908 5909 5910 5911 5912 5913 5914 5915 5916 5917 5918 5919 5921 5922 5923 5924 5925 5925 5926 5926 5927 5927 5928 5928 5929 5930 5930 5931 5931 5932 5932 5933 5933 5933 5934 5934
5888 5888 5889 5890 5890 5891 5891 5892 5893 5894 5895 5895 5896 5897 5899 5900 5901 5901 5902 5902 5902 5902 5902 5903 5903 5904 5905 5907 5908 5909 5910 5910 5911 5912 5913 5914 5915 5917 5918 5919 5920 5922 5923 5923 5924 5924 5925 5926 5926 5927 5928 5929 5929 5930 5930 5931 5931 5932 5932 5932 5933 5933 5933
5886 5887 5887 5888 5889 5890 5890 5891 5891 5893 5894 5895 5896 5897 5898 5899 5900 5900 5901 5902 5903 5903 5903 5902 5903 5903 5904 5905 5907 5908 5908 5909 5910 5911 5912 5913 5914 5915 5917 5918 5919 5920 5921 5922 5923 5923 5924 5925 5926 5927 5927 5928 5929 5929 5930 5930 5930 5931 5931 5931 5932 5932 5932
5885 5885 5886 5886 5887 5888 5889 5889 5890 5891 5892 5894 5895 5895 5896 5897 5898 5899 5899 5900 5902 5903 5903 5903 5903 5903 5904 5905 5906 5907 5908 5908 5909 5909 5910 5912 5913 5914 5915 5916 5917 5919 5920 5921 5922 5922 5923 5924 5925 5926 5926 5927 5928 5928 5929 5929 5929 5929 5930 5930 5931 5931 5932
5882 5883 5884 5884 5885 5885 5886 5887 5888 5889 5890 5891 5893 5893 5894 5895 5896 5897 5898 5899 5900 5901 5902 5903 5903 5904 5904 5904 5905 5906 5907 5907 5908 5908 5909 5911 5912 5913 5914 5915 5916 5917 5918 5919 5920 5921 5922 5923 5924 5924 5925 5926 5926 5927 5927 5928 5928 5929 5929 5930 5931 5931 5932
5880 5880 5881 5882 5883 5883 5884 5885 5886 5887 5888 5889 5891 5892 5892 5893 5894 5895 5896 5897 5898 5899 5900 5901 5902 5902 5903 5904 5904 5905 5906 5907 5907 5908 5909 5910 5911 5911 5912 5914 5915 5916 5917 5918 5919 5920 5921 5922 5922 5923 5924 5924 5925 5926 5926 5926 5927 5928 5929 5929 5930 5930 5930
5878 5878 5879 5880 5880 5881 5882 5883 5884 5885 5885 5887 5888 5889 5890 5891 5892 5893 5894 5895 5896 5897 5898 5899 5900 5900 5901 5902 5903 5904 5905 5906 5907 5907 5908 5909 5910 5910 5911 5912 5914 5915 5916 5917 5918 5919 5920 5920 5921 5922 5922 5923 5924 5924 5925 5925 5926 5927 5928 5928 5928 5929 5929
5876 5876 5877 5877 5878 5879 5879 5880 5881 5883 5883 5884 5885 5887 5888 5888 5889 5890 5892 5893 5893 5894 5896 5897 5898 5899 5899 5900 5901 5903 5904 5905 5906 5907 5908 5908 5909 5910 5910 5911 5912 5913 5914 5916 5917 5918 5918 5919 5920 5920 5921 5922 5923 5923 5924 5925 5925 5926 5926 5927 5927 5927 5927
5874 5874 5875 5875 5876 5876 5877 5877 5879 5880 5881 5882 5883 5884 5885 5886 5886 5888 5889 5890 5891 5892 5894 5895 5896 5897 5898 5898 5899 5900 5902 5903 5905 5906 5907 5908 5908 5909 5909 5910 5911 5912 5913 5914 5916 5916 5917 5918 5919 5919 5920 5921 5921 5922 5923 5923 5924 5924 5925 5926 5927 5927 5928
5872 5872 5873 5873 5874 5874 5875 5875 5876 5877 5878 5879 5880 5881 5882 5883 5884 5885 5886 5888 5889 5890 5891 5892 5894 5895 5896 5897 5897 5898 5899 5901 5902 5904 5906 5907 5907 5908 5908 5909 5910 5911 5912 5913 5914 5915 5916 5917 5918 5918 5919 5920 5920 5921 5921 5922 5923 5924 5925 5926 5928 5929 5929
5869 5870 5871 5871 5872 5872 5873 5873 5874 5874 5875 5877 5878 5879 5880 5881 5881 5882 5883 5885 5887 5888 5889 5890 5892 5893 5894 5895 5896 5897 5898 5898 5900 5901 5903 5905 5906 5907 5907 5908 5909 5910 5911 5912 5913 5913 5914 5915 5916 5917 5918 5918 5919 5920 5920 5921 5922 5924 5925 5926 5926 5926 5927
5867 5868 5868 5869 5869 5870 5870 5871 5871 5872 5873 5874 5875 5876 5877 5878 5879 5880 5881 5882 5883 5885 5887 5888 5890 5891 5892 5893 5895 5896 5897 5897 5898 5899 5900 5902 5904 5905 5906 5907 5908 5909 5910 5910 5911 5912 5913 5914 5915 5915 5916 5917 5918 5919 5919 5920 5922 5923 5924 5923 5924 5924 5925
5864 5865 5866 5866 5867 5867 5868 5868 5869 5869 5870 5870 5872 5873 5874 5875 5877 5878 5879 5880 5881 5882 5883 5885 5887 5889 5890 5891 5893 5895 5896 5897 5897 5897 5898 5900 5901 5902 5904 5905 5906 5907 5908 5909 5910 5910 5911 5912 5913 5914 5914 5915 5917 5917 5918 5920 5921 5922 5922 5922 5923 5923 5924
5862 5862 5863 5863 5864 5865 5865 5866 5866 5867 5867 5867 5869 5870 5871 5873 5874 5875 5876 5877 5878 5879 5881 5882 5885 5887 5888 5889 5891 5892 5894 5895 5895 5896 5897 5898 5899 5900 5901 5903 5904 5905 5906 5907 5908 5909 5909 5910 5911 5912 5913 5914 5915 5916 5917 5918 5920 5920 5920 5921 5921 5922 5922
5859 5860 5860 5861 5861 5862 5863 5864 5864 5865 5865 5865 5866 5867 5868 5870 5871 5872 5873 5875 5876 5877 5878 5880 5882 5884 5885 5887 5889 5890 5891 5892 5893 5894 5895 5896 5897 5898 5899 5900 5901 5902 5904 5905 5906 5907 5908 5908 5909 5910 5911 5912 5913 5914 5915 5917 5918 5919 5919 5919 5919 5919 5920
5857 5857 5857 5858 5859 5859 5860 5861 5862 5863 5863 5863 5864 5865 5866 5867 5868 5869 5871 5872 5873 5874 5875 5877 5879 5881 5882 5884 5886 5887 5888 5889 5890 5892 5893 5895 5896 5896 5897 5898 5899 5900 5901 5903 5904 5905 5906 5907 5907 5908 5909 5910 5911 5912 5914 5915 5916 5917 5917 5917 5917 5916 5916
5854 5854 5855 5855 5856 5856 5857 5858 5859 5860 5861 5861 5862 5862 5863 5864 5865 5866 5867 5869 5870 5871 5872 5874 5876 5877 5879 5881 5882 5883 5884 5886 5887 5889 5890 5892 5893 5895 5895 5896 5897 5898 5899 5900 5901 5902 5903 5904 5905 5906 5907 5908 5909 5910 5912 5913 5914 5914 5914 5914 5914 5914 5914
5851 5851 5852 5852 5853 5853 5854 5855 5856 5857 5858 5859 5859 5860 5861 5862 5862 5863 5864 5866 5867 5868 5870 5871 5873 5874 5876 5877 5878 5880 5881 5882 5884 5886 5887 5889 5890 5892 5893 5894 5895 5897 5898 5898 5899 5899 5901 5902 5903 5904 5904 5906 5907 5908 5910 5911 5912 5911 5912 5912 5912 5912 5912
5848 5848 5848 5849 5849 5850 5851 5851 5852 5854 5854 5856 5857 5857 5858 5859 5860 5860 5861 5862 5864 5865 5866 5868 5869 5870 5872 5873 5874 5876 5877 5879 5881 5882 5884 5886 5887 5888 5890 5891 5893 5894 5895 5896 5897 5897 5898 5899 5900 5901 5902 5903 5904 5905 5907 5908 5908 5908 5909 5909 5910 5910 5910
5844 5845 5845 5845 5846 5847 5848 5848 5849 5850 5851 5852 5853 5854 5855 5855 5856 5857 5858 5859 5860 5861 5863 5864 5866 5867 5868 5869 5871 5872 5874 5875 5877 5879 5881 5882 5883 5885 5886 5888 5890 5891 5892 5893 5894 5896 5896 5896 5897 5898 5899 5900 5901 5902 5904 5905 5905 5904 5906 5906 5906 5907 5907
5841 5841 5842 5842 5843 5844 5844 5845 5846 5847 5848 5849 5849 5850 5851 5852 5853 5854 5855 5856 5857 5858 5859 5861 5862 5863 5864 5866 5867 5868 5870 5871 5874 5876 5877 5878 5879 5881 5883 5885 5887 5888 5889 5890 5891 5892 5893 5893 5894 5895 5895 5896 5897 5899 5900 5901 5901 5901 5902 5902 5903 5903 5904
5838 5838 5838 5839 5840 5841 5841 5842 5843 5843 5844 5845 5846 5847 5848 5849 5850 5851 5851 5852 5854 5855 5856 5857 5859 5860 5861 5862 5863 5865 5866 5867 5869 5871 5873 5874 5876 5877 5879 5881 5883 5884 5885 5886 5888 5889 5889 5890 5890 5891 5892 5893 5894 5895 5897 5898 5898 5898 5898 5898 5899 5900 5900
5835 5835 5835 5836 5836 5837 5838 5839 5839 5840 5840 5842 5843 5844 5845 5846 5847 5848 5848 5849 5850 5852 5853 5854 5855 5856 5857 5858 5860 5861 5861 5863 5864 5867 5869 5870 5872 5874 5876 5877 5878 5879 5880 5882 5884 5885 5886 5886 5887 5888 5889 5890 5890 5891 5893 5894 5894 5894 5894 5894 5895 5896 5896
5832 5832 5832 5833 5833 5834 5835 5835 5836 5837 5837 5838 5839 5840 5841 5842 5843 5844 5845 5846 5847 5848 5849 5850 5851 5852 5853 5855 5856 5857 5858 5858 5860 5862 5864 5866 5868 5870 5872 5873 5874 5875 5876 5877 5879 5881 5882 5883 5884 5885 5886 5886 5887 5888 5888 5889 5889 5889 5889 5889 5890 5891 5892
5829 5829 5829 5830 5830 5831 5832 5832 5833 5834 5834 5835 5836 5837 5838 5839 5839 5840 5841 5842 5843 5844 5845 5846 5847 5848 5850 5851 5852 5853 5854 5855 5856 5858 5860 5863 5865 5866 5868 5869 5870 5870 5871 5872 5874 5876 5878 5879 5880 5880 5881 5883 5883 5884 5884 5884 5884 5884 5885 5885 5885 5887 5889
5826 5826 5826 5827 5827 5828 5829 5829 5830 5830 5831 5831 5832 5833 5834 5835 5835 5836 5837 5838 5840 5841 5841 5842 5843 5845 5846 5847 5848 5849 5850 5851 5853 5854 5856 5858 5860 5861 5863 5864 5865 5866 5867 5868 5870 5872 5873 5874 5875 5876 5877 5878 5879 5879 5879 5879 5880 5880 5880 5881 5881 5883 5884
5823 5823 5824 5824 5825 5825 5826 5826 5827 5827 5828 5828 5829 5829 5830 5831 5832 5832 5833 5835 5836 5837 5838 5839 5840 5840 5841 5842 5844 5845 5847 5848 5849 5851 5852 5854 5854 5855 5857 5859 5860 5861 5862 5864 5866 5867 5868 5869 5870 5871 5873 5874 5875 5875 5875 5875 5875 5876 5876 5877 5877 5879 5880
5820 5820 5821 5821 5822 5822 5823 5823 5824 5824 5824 5825 5825 5826 5826 5827 5828 5828 5829 5830 5832 5833 5834 5835 5836 5836 5837 5838 5839 5841 5843 5844 5845 5846 5847 5848 5849 5850 5852 5853 5855 5856 5857 5859 5860 5862 5863 5864 5865 5867 5869 5870 5870 5870 5870 5870 5871 5871 5872 5872 5873 5874 5874
5817 5818 5818 5818 5819 5819 5820 5820 5821 5821 5821 5822 5822 5822 5822 5823 5823 5824 5825 5826 5827 5829 5830 5831 5832 5832 5833 5834 5835 5836 5838 5839 5841 5841 5842 5843 5843 5845 5846 5848 5849 5850 5852 5853 5854 5856 5857 5859 5861 5863 5864 5864 5865 5866 5865 5865 5866 5867 5867 5868 5868 5868 5868
5814 5815 5815 5815 5816 5816 5816 5817 5817 5818 5818 5818 5819 5819 5818 5818 5819 5820 5821 5822 5823 5824 5826 5827 5828 5829 5829 5830 5831 5832 5833 5834 5836 5837 5837 5837 5838 5840 5842 5843 5843 5845 5847 5847 5848 5850 5852 5854 5856 5858 5859 5859 5860 5860 5860 5860 5861 5862 5863 5864 5864 5863 5862
5812 5812 5812 5813 5813 5813 5814 5814 5814 5815 5815 5815 5815 5815 5815 5815 5815 5815 5816 5817 5819 5820 5821 5823 5824 5825 5826 5826 5827 5828 5828 5829 5831 5832 5832 5832 5833 5835 5837 5838 5838 5839 5841 5841 5842 5844 5847 5848 5850 5852 5853 5854 5855 5855 5855 5855 5856 5857 5858 5858 5858 5856 5855
5809 5809 5809 5810 5810 5810 5811 5811 5811 5812 5812 5812 5812 5812 5812 5811 5811 5811 5812 5813 5815 5816 5817 5818 5819 5821 5822 5822 5823 5824 5825 5825 5826 5827 5827 5828 5829 5831 5831 5832 5832 5834 5836 5837 5837 5839 5842 5844 5845 5847 5848 5849 5849 5849 5850 5850 5851 5851 5853 5852 5850 5848 5848
5806 5806 5806 5807 5807 5807 5808 5808 5808 5809 5809 5809 5809 5809 5808 5808 5808 5808 5808 5809 5810 5811 5812 5813 5815 5816 5817 5818 5819 5820 5821 5821 5822 5822 5823 5824 5825 5826 5826 5827 5828 5829 5830 5832 5833 5835 5837 5839 5841 5842 5843 5844 5843 5843 5845 5847 5846 5845 5845 5845 5843 5842 5843
5803 5803 5804 5804 5804 5804 5804 5805 5805 5805 5805 5805 5805 5805 5805 5805 5805 5805 5805 5805 5805 5806 5807 5809 5810 5812 5813 5814 5815 5816 5816 5817 5818 5818 5819 5819 5820 5821 5821 5822 5823 5824 5825 5827 5829 5830 5832 5834 5835 5836 5837 5837 5837 5837 5838 5840 5840 5839 5838 5837 5835 5836 5837
5800 5800 5801 5801 5801 5801 5801 5801 5802 5802 5802 5802 5802 5802 5802 5802 5802 5802 5802 5801 5801 5802 5803 5804 5806 5807 5809 5810 5811 5812 5812 5813 5814 5814 5815 5815 5815 5816 5817 5818 5818 5819 5819 5822 5824 5824 5826 5828 5829 5829 5830 5831 5831 5830 5830 5832 5833 5833 5831 5829 5828 5829 5830
5797 5797 5798 5798 5798 5798 5798 5798 5799 5798 5799 5799 5799 5799 5799 5799 5799 5799 5798 5798 5798 5798 5799 5800 5801 5803 5804 5806 5807 5808 5809 5810 5810 5810 5811 5810 5811 5811 5811 5812 5813 5813 5814 5816 5818 5818 5820 5822 5823 5823 5824 5824 5825 5825 5824 5823 5824 5824 5823 5823 5823 5823 5823
5794 5794 5795 5795 5795 5795 5795 5795 5795 5795 5795 5796 5796 5795 5796 5796 5795 5795 5795 5795 5795 5794 5795 5796 5797 5799 5801 5802 5802 5803 5804 5806 5807 5807 5807 5807 5806 5806 5806 5806 5807 5807 5808 5810 5812 5813 5815 5816 5817 5819 5819 5817 5817 5818 5817 5817 5817 5817 5818 5818 5818 5818 5818
5791 5791 5791 5791 5791 5792 5792 5792 5792 5792 5792 5793 5793 5793 5793 5793 5792 5792 5792 5792 5792 5791 5792 5792 5793 5795 5796 5797 5798 5799 5800 5801 5802 5803 5803 5803 5802 5802 5802 5802 5803 5804 5804 5805 5806 5808 5809 5809 5810 5813 5814 5811 5806 5806 5809 5811 5812 5813 5813 5813 5813 5813 5814
Wind_Speed
15 13 12 12 13 14 15 15 16 17 17 16 17 16 15 14 15 17 18 19 19 18 18 17 16 16 15 15 14 14 14 13 13 13 14 14 14 15 15 14 13 13 12 11 11 10 10 11 11 11 11 11 11 10 10 10 9 8 8 8 9 9 9
18 16 15 14 14 15 16 17 17 17 18 18 18 16 15 15 15 16 17 18 18 18 18 17 17 16 15 14 14 14 14 13 12 13 13 14 14 14 14 14 13 13 12 12 12 12 12 12 12 11 11 11 11 11 10 10 9 9 9 10 10 10 10
19 18 17 16 16 15 16 17 17 18 18 18 18 17 16 17 17 16 16 17 17 18 18 17 17 17 16 15 15 15 14 14 13 13 13 13 13 14 14 13 13 13 13 13 13 13 13 13 12 12 12 12 12 11 11 11 11 11 12 12 12 11 10
21 20 19 19 18 17 16 16 17 18 18 19 19 19 19 18 18 17 17 16 16 17 18 18 17 16 16 15 15 15 15 14 13 13 13 13 13 13 13 13 13 13 14 14 14 14 14 13 13 13 13 13 13 13 13 13 13 13 13 13 12 11 10
20 22 22 21 21 20 19 18 17 18 19 19 19 20 21 20 19 18 18 17 16 17 19 19 17 16 16 16 16 15 15 14 13 13 13 13 13 13 13 13 13 14 14 14 14 15 15 14 14 14 14 14 14 14 14 14 14 14 13 12 11 10 10
17 21 23 24 23 23 22 21 19 18 19 19 19 20 21 22 21 20 20 19 17 16 18 19 19 19 18 17 17 16 16 15 14 13 13 13 14 14 13 13 13 14 14 14 15 15 15 15 15 15 15 15 15 15 15 15 14 13 12 11 10 11 11
13 16 20 23 25 25 24 23 22 21 20 19 19 19 20 21 22 22 22 21 18 17 18 19 20 21 20 19 18 17 17 16 15 14 14 14 14 14 13 13 13 14 14 15 15 15 15 15 15 16 16 16 16 16 15 15 14 13 12 12 12 12 12
12 13 16 20 23 25 26 25 24 23 22 21 20 20 19 20 23 23 24 23 21 18 18 19 21 22 22 21 20 19 18 17 17 15 15 14 14 14 14 14 14 14 14 14 14 15 15 15 16 16 16 16 16 16 15 15 14 14 14 13 13 14 14
12 13 14 16 19 22 25 26 26 25 25 24 22 21 20 21 22 22 23 24 22 20 19 20 21 22 23 22 21 21 20 19 18 17 16 16 15 15 15 15 15 15 14 14 14 15 15 15 16 16 16 16 16 16 16 15 15 15 15 15 14 14 13
13 13 14 15 17 18 21 24 25 26 26 26 25 23 22 21 21 21 23 25 25 23 21 22 22 22 23 23 23 22 21 20 19 19 18 17 17 17 16 16 16 16 16 15 15 15 16 16 16 16 16 17 17 17 17 16 16 15 15 13 12 12 12
14 14 14 15 16 17 18 20 22 24 26 27 27 26 24 22 22 22 22 24 26 26 24 23 23 23 22 23 24 23 22 22 21 20 20 19 19 19 18 18 17 17 17 17 17 17 17 17 17 17 18 18 18 18 17 17 16 15 13 13 13 14 14
15 15 14 15 16 17 17 17 19 21 24 26 28 29 27 25 23 23 23 24 25 27 27 26 25 23 23 23 23 23 23 22 22 22 22 22 21 21 20 19 19 18 18 19 19 19 19 19 19 19 19 19 19 18 18 18 16 15 15 15 16 16 15
16 16 15 15 16 18 18 17 18 19 21 24 27 28 29 28 25 23 23 24 26 27 28 28 26 24 24 24 23 23 23 23 23 23 23 24 23 23 22 21 21 20 20 20 20 20 20 20 20 20 20 20 19 19 19 19 17 16 16 17 16 17 16
16 17 17 17 17 18 19 19 19 19 21 22 24 27 28 29 27 25 24 24 26 27 29 30 28 26 26 25 23 23 24 24 24 24 24 25 25 25 24 23 22 21 21 22 22 22 22 21 21 21 21 20 20 20 20 19 18 17 17 17 18 18 17
17 17 18 18 18 18 19 20 20 20 21 22 22 24 26 27 28 27 25 24 25 26 29 31 31 28 27 25 24 24 25 25 25 25 25 25 26 26 26 25 24 23 23 23 23 23 23 23 23 23 22 22 22 21 21 21 20 19 19 19 19 20 19
19 18 18 18 18 19 20 21 22 21 21 22 22 22 24 25 27 27 26 25 25 25 27 29 32 32 29 26 25 25 26 26 26 26 27 26 26 27 27 27 27 25 24 24 24 24 24 24 25 24 23 23 23 23 22 22 21 21 20 20 21 22 22
21 20 19 19 19 19 20 21 23 23 22 22 22 22 23 24 25 26 26 25 25 25 25 26 30 33 33 29 27 27 27 27 27 27 28 28 28 27 27 28 28 27 26 25 26 26 25 25 26 25 25 25 24 24 23 22 22 22 22 22 23 24 23
22 22 21 20 20 20 20 21 22 24 25 23 22 22 22 23 24 25 25 24 24 24 24 24 26 31 35 34 31 29 29 28 28 28 28 29 29 29 29 29 28 28 27 27 27 27 27 27 27 27 27 26 25 25 23 22 23 24 23 24 24 24 24
22 22 22 22 21 20 21 21 22 23 25 25 24 22 22 23 24 25 25 25 24 23 23 23 24 27 32 36 36 34 31 30 29 29 29 29 30 30 30 30 29 29 29 29 29 28 28 28 28 29 28 27 27 26 25 23 25 26 25 25 26 25 25
21 21 23 23 22 22 21 22 22 22 24 25 25 24 23 23 24 25 25 25 25 24 23 23 23 24 28 33 37 37 35 33 31 30 30 30 30 31 31 31 31 30 30 30 30 29 29 29 30 30 30 29 29 28 26 25 27 28 27 27 28 27 28
20 20 22 23 23 23 22 22 22 22 23 24 26 26 25 23 23 25 26 26 26 25 25 24 24 25 26 29 33 36 38 38 35 32 31 31 31 31 31 31 32 32 32 32 31 31 31 32 32 31 31 31 31 30 29 28 30 31 30 30 31 30 30
21 19 20 21 23 24 23 23 23 23 23 23 25 26 26 25 24 24 25 26 27 26 26 25 25 25 26 28 30 33 37 39 39 36 34 32 32 31 31 31 32 33 34 34 33 33 34 34 34 33 33 33 33 32 31 31 32 33 33 33 33 33 33
22 20 19 19 21 23 23 23 23 23 24 23 24 25 26 26 25 24 25 26 27 27 27 27 27 27 27 27 28 30 34 38 40 40 38 35 33 32 31 31 32 33 34 34 35 35 35 36 36 35 35 35 35 34 33 34 35 35 36 36 36 36 35
22 21 19 19 20 21 21 23 23 23 23 24 24 24 26 26 26 26 26 26 26 27 27 28 29 28 27 27 28 28 31 35 39 41 41 39 36 34 33 33 33 33 33 34 34 35 36 36 36 37 37 37 37 36 36 37 37 37 38 39 39 38 36
21 21 20 19 19 20 20 21 22 22 22 23 24 24 25 27 27 27 27 27 27 27 28 28 29 29 28 28 28 28 28 30 34 39 41 41 39 37 36 36 35 35 35 35 35 34 35 36 37 38 38 38 38 39 39 40 40 40 40 41 41 39 37
20 20 20 20 20 20 20 20 21 21 22 23 24 24 25 27 28 29 29 29 28 28 28 29 28 28 29 29 29 29 29 29 31 34 38 40 40 41 40 40 40 40 38 37 35 34 34 36 37 38 39 39 39 40 41 42 42 42 42 41 41 39 37
19 20 20 21 21 21 21 20 20 21 21 22 23 25 26 27 29 30 30 30 30 29 29 29 29 29 29 30 30 29 30 30 30 31 34 37 40 42 44 44 44 43 42 40 37 36 36 36 37 38 38 39 40 41 42 43 43 43 43 42 42 40 39
19 20 20 21 21 21 21 21 20 20 20 21 22 24 26 27 29 31 31 31 31 31 30 30 30 30 30 30 30 30 30 30 31 32 33 35 37 39 42 44 45 46 45 43 40 39 39 38 38 37 37 39 41 42 43 43 44 44 44 44 43 41 40
19 20 21 21 21 21 21 21 20 20 20 20 21 22 25 27 28 30 32 32 32 32 32 31 31 31 30 30 30 30 30 30 31 32 33 35 36 37 38 41 44 46 46 46 44 43 42 42 40 38 38 40 41 42 43 44 44 45 45 44 44 44 43
19 20 20 21 21 21 21 20 20 19 19 19 19 20 23 25 27 30 31 33 33 33 33 33 32 32 31 31 31 31 31 31 31 31 32 33 35 34 35 37 41 44 46 48 48 46 45 44 42 40 40 41 42 42 43 45 45 46 46 45 45 45 47
19 19 20 20 21 20 20 19 19 19 18 18 18 19 20 23 25 28 30 32 33 34 34 34 34 33 32 31 31 31 31 31 30 30 31 32 33 32 32 34 38 42 45 48 49 49 47 46 45 43 42 42 43 44 45 46 45 45 47 47 46 47 50
19 20 20 20 20 20 20 19 19 18 18 18 18 18 19 20 22 25 28 31 33 34 34 34 34 34 33 32 32 31 31 31 30 30 30 31 31 31 32 34 36 38 41 45 48 48 47 47 46 45 44 44 45 47 47 46 46 46 47 50 52 52 52
19 20 20 20 20 20 20 20 19 19 19 19 19 18 18 18 19 22 25 28 31 34 34 34 34 35 35 34 33 32 32 31 31 31 31 30 30 31 33 34 35 36 38 41 43 44 45 46 46 46 46 47 49 51 49 48 48 49 49 52 54 55 54
19 19 20 20 20 20 20 20 19 19 19 19 19 18 18 18 18 19 21 24 28 32 34 34 33 34 36 36 35 34 33 32 31 31 31 31 31 32 33 34 35 36 37 37 38 41 42 44 44 44 45 47 49 50 51 50 49 50 51 54 56 56 56
18 19 19 19 20 20 20 20 19 19 19 19 19 19 18 18 17 17 19 21 24 28 32 33 33 33 34 36 36 36 35 34 32 32 32 32 32 33 33 34 36 38 39 38 38 39 41 42 43 44 44 46 47 50 51 51 49 49 51 53 54 55 56
18 18 18 19 19 19 19 19 19 20 20 19 19 19 19 18 17 17 17 19 21 25 28 31 32 32 33 34 35 36 35 34 33 32 32 33 34 35 35 35 36 38 40 40 40 41 41 42 44 44 44 46 48 50 51 50 48 49 51 52 54 56 57
18 18 18 19 19 19 19 19 19 20 20 19 19 19 19 18 18 17 17 17 19 21 25 28 29 29 30 32 33 34 35 34 33 33 32 33 35 36 37 37 37 38 39 40 42 43 42 43 44 43 43 48 51 51 51 51 49 48 49 50 52 55 56
18 18 18 18 19 18 18 19 19 20 20 20 19 19 18 18 18 18 17 17 17 19 21 24 26 26 27 29 31 33 33 33 33 33 32 32 34 36 37 37 37 38 38 39 40 41 42 46 47 44 44 53 61 59 54 51 48 47 46 46 45 46 47
Wind_Direction
245 245 244 244 243 239 234 231 231 234 237 237 234 233 231 228 225 221 217 213 210 207 208 211 213 215 217 217 217 217 219 220 219 218 215 214 216 220 221 219 217 216 215 213 212 210 210 208 205 204 206 207 208 208 207 205 204 203 204 205 207 208 207
238 241 241 239 241 241 239 236 233 233 236 239 241 241 240 239 238 233 227 222 218 213 211 211 214 217 218 218 218 218 218 217 215 214 213 212 213 216 217 216 216 217 217 216 214 214 215 214 211 209 209 211 211 210 209 208 207 205 205 206 207 208 207
234 239 241 241 240 240 241 240 236 234 235 238 243 244 244 243 242 241 238 234 229 225 220 215 215 218 219 219 219 221 220 216 212 211 212 211 212 214 214 213 214 216 218 218 217 217 217 216 214 213 211 210 210 209 208 209 208 207 206 206 205 205 204
233 235 238 242 243 241 241 241 239 238 235 235 238 241 243 244 244 243 242 240 237 236 233 226 221 220 222 224 224 224 225 220 212 209 210 211 210 212 212 211 214 216 218 219 218 218 218 216 213 212 210 209 208 209 209 210 210 209 208 205 203 203 204
234 233 234 238 242 243 241 240 239 240 239 236 234 236 241 244 245 244 243 240 237 238 238 235 231 225 224 228 229 229 230 227 218 210 209 210 210 210 210 210 213 215 217 218 217 217 217 214 211 209 208 208 208 209 210 211 212 211 209 206 206 208 211
234 235 234 234 238 242 243 241 239 239 240 240 238 238 241 243 242 240 242 242 239 238 238 236 234 230 226 227 230 232 233 232 226 217 211 210 209 209 208 208 210 212 214 215 215 215 214 212 209 208 208 209 210 211 211 212 213 213 212 210 210 213 217
238 237 236 235 235 239 242 242 241 240 240 241 241 241 243 246 243 239 241 243 242 242 241 237 235 232 228 225 227 231 233 234 231 224 216 212 211 210 207 207 208 209 211 213 213 212 212 211 209 209 210 211 212 213 213 214 215 215 215 213 213 217 220
245 243 241 238 236 236 239 241 241 240 241 241 241 241 242 246 246 243 241 240 240 240 241 239 237 234 231 226 224 227 230 233 233 229 223 217 214 213 209 207 207 206 208 211 212 211 211 212 212 212 213 214 215 216 216 217 216 217 218 217 217 218 220
249 248 246 242 239 237 238 240 241 240 241 242 242 242 242 245 248 246 241 238 239 239 238 237 236 235 234 229 225 224 225 229 232 232 229 222 217 216 213 210 208 207 208 209 210 211 212 215 217 216 217 218 219 220 220 220 220 221 222 223 224 226 230
252 250 248 244 242 240 239 240 242 241 241 241 242 243 243 245 248 246 240 238 240 240 238 236 234 234 235 233 229 225 223 225 229 231 231 228 223 220 217 214 212 209 209 209 210 212 214 217 221 222 222 222 222 224 224 224 224 225 228 232 237 243 248
258 254 251 245 240 240 241 241 242 242 241 241 242 243 243 245 246 244 240 237 239 241 242 241 237 235 236 236 234 231 226 224 226 228 231 231 229 226 222 220 218 215 214 213 213 216 218 220 223 226 227 227 226 227 228 229 229 230 234 236 237 238 241
260 258 255 248 239 237 239 241 243 243 241 240 240 242 243 244 245 244 241 237 237 239 241 243 242 239 239 239 239 237 233 228 226 227 230 231 231 230 227 225 223 221 219 218 218 220 222 224 226 229 230 231 230 231 232 233 233 234 235 235 235 237 238
257 259 258 252 242 237 237 239 242 243 241 238 237 239 242 244 245 246 245 241 239 237 236 238 241 241 241 241 241 240 239 236 231 228 229 231 232 233 231 230 229 227 226 224 224 225 226 228 230 232 233 233 234 235 236 237 236 236 236 236 238 242 241
255 257 259 256 248 240 237 239 243 245 244 241 237 236 239 242 244 246 247 246 244 242 237 234 235 238 240 241 241 240 240 240 238 233 231 232 233 235 234 232 231 231 231 230 230 230 231 232 234 234 234 235 236 237 238 239 238 237 238 241 244 245 245
253 254 256 258 255 247 240 239 242 245 247 246 241 237 237 239 242 244 247 248 248 247 243 237 233 234 239 241 240 240 240 240 240 239 236 234 235 236 237 235 233 232 233 234 235 235 235 236 237 237 236 236 237 238 239 240 241 240 242 244 247 249 250
254 254 256 257 257 253 246 241 241 242 244 247 246 242 238 238 240 243 246 249 249 249 247 241 235 232 236 239 240 240 241 241 241 241 240 238 237 237 238 239 237 234 232 234 237 239 239 239 240 240 238 238 239 240 241 243 245 246 246 247 248 250 252
255 255 255 256 255 254 249 244 241 241 242 243 245 245 242 239 240 242 244 247 250 250 249 245 239 234 235 237 238 239 240 241 241 241 241 240 239 238 238 240 240 238 235 234 236 239 240 241 242 242 241 241 242 244 245 247 249 249 248 248 248 251 254
257 255 254 254 255 254 251 246 242 241 242 242 243 244 244 242 240 241 242 244 248 250 249 247 242 237 236 237 238 238 238 239 240 240 240 240 240 239 238 239 240 240 238 236 236 237 238 240 242 243 243 244 246 248 248 249 250 248 247 247 248 251 255
257 256 253 251 253 254 253 250 245 241 241 242 243 244 244 242 241 240 240 240 242 245 246 245 243 239 236 235 237 238 239 239 238 239 240 240 240 240 239 239 239 239 239 238 237 237 237 239 241 243 245 246 248 250 249 249 249 249 248 248 250 252 254
261 256 253 250 250 252 254 253 250 245 241 242 243 243 243 243 242 240 239 238 238 240 241 242 241 239 235 234 235 237 239 240 238 237 238 238 239 241 241 240 239 239 239 239 239 239 239 240 241 243 245 247 248 249 248 248 249 249 248 249 251 252 253
268 260 254 250 248 249 252 253 253 249 244 241 241 242 243 243 243 241 239 238 237 237 238 240 240 239 237 235 234 236 238 238 238 237 237 237 238 239 241 242 242 241 241 240 240 239 239 240 241 241 244 246 247 247 247 247 248 249 249 250 251 253 254
272 266 258 251 247 247 249 251 252 252 248 244 242 242 243 243 244 244 242 239 238 236 236 238 240 240 238 237 236 236 237 237 236 236 236 236 237 237 239 241 242 243 243 242 241 240 240 241 242 242 243 245 247 247 247 248 250 251 252 252 253 254 256
272 269 264 255 250 247 248 250 251 252 251 248 244 242 243 243 244 246 245 243 240 237 235 235 237 239 240 239 238 238 239 238 236 234 234 236 237 237 238 239 241 243 244 244 244 243 243 243 244 244 245 245 246 247 247 249 251 253 255 256 256 257 257
269 268 266 261 255 252 251 251 251 251 251 251 247 244 243 243 245 247 248 247 243 240 237 236 236 237 239 241 241 241 241 239 237 235 234 235 237 238 239 239 240 241 243 244 245 245 246 247 247 247 247 247 248 248 248 248 249 251 253 255 257 258 259
266 264 263 261 259 257 256 255 253 252 251 251 251 248 245 244 245 246 248 248 246 242 240 238 237 237 238 240 242 242 242 240 238 236 236 237 239 240 241 241 241 241 242 243 244 245 247 248 248 248 249 249 250 250 250 250 250 250 251 253 256 258 261
263 260 258 258 258 259 259 258 257 255 254 253 252 250 248 246 245 246 247 248 248 245 243 242 240 239 238 239 240 241 242 242 240 237 237 238 240 242 243 242 241 241 242 243 243 244 245 247 249 250 250 251 251 251 252 252 252 252 253 254 256 258 259
259 255 254 255 257 258 259 259 259 259 258 256 255 253 250 247 246 246 247 247 248 247 246 245 244 242 241 240 240 241 242 243 242 241 240 240 240 242 242 243 242 242 243 243 243 243 244 246 248 249 251 252 253 253 253 254 254 255 255 256 256 257 257
256 253 252 253 256 257 258 259 259 260 261 260 258 256 254 250 248 247 246 246 246 247 246 246 247 246 244 242 242 242 242 243 244 244 244 243 243 243 243 242 242 242 242 243 243 243 243 245 246 248 250 252 254 255 255 255 256 256 256 256 257 257 257
255 253 252 253 255 256 258 258 258 259 261 262 262 260 257 254 250 247 247 246 245 245 245 246 247 248 247 246 244 244 243 243 244 245 246 246 246 245 244 243 242 241 241 243 243 243 244 245 247 248 250 252 253 255 256 257 257 258 258 258 259 260 259
257 253 252 253 254 255 258 259 259 260 262 264 265 263 260 257 253 249 247 246 245 245 244 244 245 247 249 248 247 246 245 244 244 246 248 249 248 248 246 244 242 240 240 241 243 243 244 245 247 249 251 252 253 254 256 257 258 258 259 261 261 262 261
260 255 253 252 253 255 258 261 262 265 268 269 270 269 265 261 257 252 248 245 244 244 244 243 243 245 247 248 247 247 248 248 247 246 248 250 251 252 249 246 243 241 239 241 243 243 243 244 246 249 252 254 255 255 256 259 260 259 260 261 260 260 261
264 259 256 254 254 256 260 263 265 269 272 274 274 274 273 269 264 258 252 247 244 243 243 243 242 242 244 246 247 248 249 251 252 251 249 250 251 252 251 249 246 243 241 242 243 244 244 244 246 250 253 255 257 257 258 260 260 259 259 259 259 259 261
267 262 259 258 257 259 262 264 266 269 272 274 276 278 278 276 271 265 259 251 246 243 243 243 242 241 242 244 246 248 249 252 254 254 253 251 251 251 251 250 248 246 243 242 243 244 244 245 248 251 253 253 255 256 258 259 259 257 256 256 258 260 261
269 264 261 260 259 261 262 263 265 267 270 272 275 279 280 280 278 273 267 258 251 245 243 243 242 241 241 243 245 247 248 251 254 256 256 254 252 251 251 250 249 247 245 242 242 244 244 245 248 251 253 253 255 256 256 255 255 256 257 256 258 260 261
268 266 263 262 261 262 262 263 264 266 268 271 275 278 280 281 282 279 273 266 257 250 245 244 243 242 241 242 243 245 247 250 253 257 258 257 255 254 252 251 250 249 247 244 243 245 247 248 248 249 251 253 255 257 258 257 254 253 253 253 255 258 260
266 265 264 263 263 263 263 264 265 265 267 271 275 277 278 280 281 280 277 272 264 255 248 245 244 243 242 242 243 244 246 248 252 256 259 259 258 257 255 253 251 250 248 245 242 243 246 249 251 253 254 255 255 257 258 257 253 252 251 252 253 256 258
265 266 265 264 264 264 265 265 266 267 269 271 273 274 276 278 280 281 279 276 270 262 254 248 246 245 244 243 243 244 245 246 250 254 258 260 259 256 253 251 251 250 249 246 242 240 241 245 248 250 251 253 254 253 250 250 252 255 257 257 257 256 257
267 268 268 268 267 268 268 268 268 269 270 271 272 274 275 277 278 280 280 278 275 268 260 253 248 246 244 244 243 243 244 245 248 251 256 259 259 255 251 250 251 252 250 245 241 238 238 241 242 242 241 241 242 242 244 248 253 257 259 262 263 261 258